Weather History for PAPH - January, 2013

Change the Weather History Date:

Saturday, January 12, 2013

  Actual Average Record
Temperature  
Mean Temperature 42 °F -  
Max Temperature 46 °F 28 °F 46 °F (2013)
Min Temperature 39 °F 19 °F -11 °F (2008)
Degree Days  
Heating Degree Days 22    
Moisture  
Dew Point 32 °F    
Average Humidity 65    
Maximum Humidity 71    
Minimum Humidity 57    
Precipitation  
Precipitation 0.01 in - - ()
Sea Level Pressure  
Sea Level Pressure 29.42 in    
Wind  
Wind Speed 35 mph (SE)    
Max Wind Speed 44 mph    
Max Gust Speed 54 mph    
Visibility 10 miles    
Events      
Averages and records for this station are not official NWS values.
T = Trace of Precipitation, MM = Missing Value Source: NWS Daily Summary

Daily Weather History Graph

Daily Weather History Graph

Search for Another Location

Airport or City:

Trip Planner

Search our weather history database for the weather conditions in past years. The results will help you decide how hot, cold, wet, or windy it might be!

Date:

Astronomy

Jan. 12, 2013 Rise Set
Actual Time 10:04 AM AKST 5:22 PM AKST
Civil Twilight 9:17 AM AKST 6:09 PM AKST
Nautical Twilight 8:28 AM AKST 6:58 PM AKST
Astronomical Twilight 7:42 AM AKST 7:44 PM AKST
Moon 10:06 AM AKST (1/12) 7:34 PM AKST (1/12)
Length of Visible Light 8h 51m
Length of Day
7h 18m
New Moon, 2% of the Moon is Illuminated
Jan 12
New Moon
Jan 18
First Quarter
Jan 26
Full
Feb 3
Last Quarter
Feb 9
New

Hourly Weather History & Observations

Time (AKST) Temp. Windchill Dew Point Humidity Pressure Visibility Wind Dir Wind Speed Gust Speed Precip Events Conditions
12:16 AM 39.2 °F 26.1 °F 28.4 °F 65% 29.57 in 10.0 mi SE 38.0 mph 46.0 mph N/A   Overcast
12:36 AM 39.2 °F 25.8 °F 28.4 °F 65% 29.56 in 10.0 mi SSE 40.3 mph 51.8 mph N/A   Overcast
12:56 AM 39.2 °F 25.8 °F 28.4 °F 65% 29.56 in 10.0 mi SSE 40.3 mph 49.5 mph N/A   Mostly Cloudy
1:16 AM 39.2 °F 26.0 °F 28.4 °F 65% 29.55 in 10.0 mi SSE 39.1 mph 48.3 mph N/A   Scattered Clouds
1:36 AM - - - N/A% 29.52 in 10.0 mi SE 43.7 mph 50.6 mph N/A   Clear
1:56 AM 41.0 °F 27.9 °F 28.4 °F 61% 29.53 in 10.0 mi SE 43.7 mph 54.1 mph N/A   Clear
2:16 AM 39.2 °F 25.5 °F 28.4 °F 65% 29.53 in 10.0 mi SE 42.6 mph 49.5 mph N/A   Clear
2:36 AM 41.0 °F 28.5 °F 28.4 °F 61% 29.51 in 10.0 mi SSE 39.1 mph 50.6 mph N/A   Clear
2:56 AM - - - N/A% 29.52 in 10.0 mi SSE 33.4 mph 44.9 mph N/A   Clear
3:16 AM - - - N/A% 29.49 in 10.0 mi SSE 35.7 mph 47.2 mph N/A   Clear
3:36 AM - - - N/A% 29.51 in 10.0 mi SSE 33.4 mph 44.9 mph N/A   Clear
3:56 AM 41.0 °F 29.8 °F 30.2 °F 65% 29.54 in 10.0 mi SSE 29.9 mph 38.0 mph N/A   Mostly Cloudy
4:16 AM 41.0 °F 30.0 °F 32.0 °F 70% 29.52 in 10.0 mi SSE 28.8 mph 33.4 mph N/A   Scattered Clouds
4:36 AM 41.0 °F 29.3 °F 30.2 °F 65% 29.50 in 10.0 mi SSE 33.4 mph 39.1 mph N/A   Partly Cloudy
4:56 AM - - - N/A% 29.47 in 10.0 mi SE 38.0 mph 49.5 mph N/A   Scattered Clouds
5:16 AM 42.8 °F 31.6 °F 30.2 °F 61% 29.46 in 10.0 mi SSE 34.5 mph 41.4 mph N/A   Mostly Cloudy
5:36 AM - - - N/A% 29.43 in 10.0 mi SSE 33.4 mph 40.3 mph 0.01 in   Mostly Cloudy
5:56 AM - - - N/A% 29.44 in 10.0 mi SSE 33.4 mph 41.4 mph 0.01 in   Clear
6:16 AM - - - N/A% 29.42 in 10.0 mi SSE 31.1 mph 41.4 mph N/A   Partly Cloudy
6:36 AM - - - N/A% 29.41 in 10.0 mi SSE 40.3 mph 44.9 mph N/A   Clear
6:56 AM - - - N/A% 29.41 in 10.0 mi SSE 34.5 mph 43.7 mph N/A   Clear
7:16 AM - - - N/A% 29.41 in 10.0 mi SSE 34.5 mph 43.7 mph N/A   Mostly Cloudy
7:36 AM 44.6 °F 33.9 °F 33.8 °F 66% 29.41 in 10.0 mi SSE 35.7 mph 41.4 mph N/A   Overcast
7:56 AM - - - N/A% 29.40 in 10.0 mi SSE 36.8 mph 44.9 mph N/A   Overcast
8:16 AM - - - N/A% 29.39 in 10.0 mi SE 36.8 mph 43.7 mph N/A   Overcast
8:36 AM - - - N/A% 29.40 in 10.0 mi SE 34.5 mph 41.4 mph N/A   Overcast
8:56 AM - - - N/A% 29.40 in 10.0 mi SE 32.2 mph 38.0 mph N/A   Overcast
9:16 AM 46.4 °F 37.2 °F 35.6 °F 66% 29.42 in 10.0 mi SE 29.9 mph 36.8 mph N/A   Overcast
9:36 AM - - - N/A% 29.37 in 10.0 mi SE 38.0 mph 43.7 mph N/A   Mostly Cloudy
9:56 AM - - - N/A% 29.35 in 10.0 mi SE 40.3 mph 49.5 mph N/A   Clear
10:16 AM - - - N/A% 29.35 in 10.0 mi SE 36.8 mph 43.7 mph N/A   Clear
10:36 AM - - - N/A% 29.35 in 10.0 mi SE 41.4 mph 47.2 mph N/A   Clear
10:56 AM - - - N/A% 29.38 in 10.0 mi SSE 34.5 mph 46.0 mph N/A   Clear
11:16 AM - - - N/A% 29.37 in 10.0 mi SE 34.5 mph 46.0 mph N/A   Clear
11:36 AM - - - N/A% 29.38 in 10.0 mi SE 28.8 mph 40.3 mph N/A   Partly Cloudy
11:56 AM - - - N/A% 29.36 in 10.0 mi SE 34.5 mph 41.4 mph N/A   Scattered Clouds
12:16 PM - - - N/A% 29.33 in 10.0 mi SSE 39.1 mph 46.0 mph N/A   Partly Cloudy
12:36 PM 46.4 °F 35.8 °F 35.6 °F 66% 29.32 in 10.0 mi SE 40.3 mph 48.3 mph N/A   Clear
12:56 PM - - - N/A% 29.34 in 10.0 mi SSE 36.8 mph 43.7 mph N/A   Clear
1:16 PM - - - N/A% 29.32 in 10.0 mi SE 35.7 mph 41.4 mph N/A   Clear
1:36 PM - - - N/A% 29.31 in 10.0 mi SE 40.3 mph 50.6 mph N/A   Clear
1:56 PM - - - N/A% 29.31 in 10.0 mi SE 35.7 mph 47.2 mph N/A   Scattered Clouds
2:16 PM - - - N/A% 29.30 in 10.0 mi SE 38.0 mph 43.7 mph N/A   Partly Cloudy
2:36 PM - - - N/A% 29.31 in 10.0 mi SE 28.8 mph 38.0 mph N/A   Clear
2:56 PM - - - N/A% 29.30 in 10.0 mi SE 39.1 mph 48.3 mph N/A   Clear
3:16 PM - - - N/A% 29.32 in 10.0 mi SE 32.2 mph 41.4 mph N/A   Clear
3:36 PM - - - N/A% 29.33 in 10.0 mi SE 33.4 mph 41.4 mph N/A   Clear
3:56 PM - - - N/A% 29.33 in 10.0 mi SE 32.2 mph 40.3 mph N/A   Clear
4:16 PM - - - N/A% 29.33 in 10.0 mi SE 34.5 mph 40.3 mph N/A   Clear
4:36 PM - - - N/A% 29.35 in 10.0 mi SSE 27.6 mph 35.7 mph N/A   Clear
4:56 PM - - - N/A% 29.33 in 10.0 mi SE 31.1 mph 39.1 mph N/A   Clear
5:16 PM - - - N/A% 29.34 in 10.0 mi SE 34.5 mph 42.6 mph N/A   Clear
5:36 PM 46.4 °F 37.5 °F 35.6 °F 66% 29.38 in 10.0 mi SE 27.6 mph 34.5 mph N/A   Mostly Cloudy
5:56 PM - - - N/A% 29.37 in 10.0 mi SE 29.9 mph 36.8 mph N/A   Mostly Cloudy
6:16 PM - - - N/A% 29.38 in 10.0 mi SE 31.1 mph 35.7 mph N/A   Clear
6:36 PM 46.4 °F 38.3 °F 35.6 °F 66% 29.39 in 10.0 mi SE 23.0 mph 29.9 mph N/A   Clear
6:56 PM 44.6 °F 35.7 °F 35.6 °F 71% 29.42 in 10.0 mi SE 24.2 mph 27.6 mph N/A   Clear
7:16 PM 44.6 °F 36.1 °F 35.6 °F 71% 29.43 in 10.0 mi SE 21.9 mph - N/A   Mostly Cloudy
7:36 PM 46.4 °F 38.1 °F 35.6 °F 66% 29.43 in 10.0 mi SE 24.2 mph 29.9 mph N/A   Overcast
7:56 PM 44.6 °F 36.1 °F 35.6 °F 71% 29.44 in 10.0 mi SE 21.9 mph 26.5 mph N/A   Overcast
8:16 PM 46.4 °F 38.3 °F 35.6 °F 66% 29.44 in 10.0 mi SE 23.0 mph 27.6 mph N/A   Overcast
8:36 PM - - - N/A% 29.44 in 10.0 mi SE 25.3 mph 33.4 mph N/A   Scattered Clouds
8:56 PM 46.4 °F 37.9 °F 35.6 °F 66% 29.44 in 10.0 mi SE 25.3 mph - N/A   Clear
9:16 PM 46.4 °F 39.0 °F 35.6 °F 66% 29.46 in 10.0 mi SE 19.6 mph 26.5 mph N/A   Clear
9:36 PM 44.6 °F 35.1 °F 33.8 °F 66% 29.43 in 10.0 mi SE 27.6 mph 33.4 mph N/A   Clear
9:56 PM - - - N/A% 29.43 in 10.0 mi SE 27.6 mph 35.7 mph N/A   Clear
10:16 PM - - - N/A% 29.43 in 10.0 mi SE 31.1 mph 35.7 mph N/A   Clear
10:36 PM - - - N/A% 29.46 in 10.0 mi SE 26.5 mph 33.4 mph N/A   Clear
10:56 PM 44.6 °F 35.5 °F 32.0 °F 61% 29.47 in 10.0 mi SE 25.3 mph 29.9 mph N/A   Clear
11:16 PM 42.8 °F 34.0 °F 30.2 °F 61% 29.48 in 10.0 mi SSE 20.7 mph - N/A   Clear
11:36 PM 44.6 °F 35.9 °F 30.2 °F 57% 29.48 in 10.0 mi South 23.0 mph - N/A   Clear
11:56 PM 44.6 °F 35.3 °F 30.2 °F 57% 29.48 in 10.0 mi South 26.5 mph 34.5 mph N/A   Clear